Weather History for Lugano, Switzerland

Change the Weather History Date:

Sunday, November 11, 2012

  Actual Average Record
Temperature  
Mean Temperature 47 °F -  
Max Temperature 50 °F 48 °F 66 °F (2007)
Min Temperature 44 °F 37 °F 32 °F (2000)
Degree Days  
Heating Degree Days 18    
Moisture  
Dew Point 46 °F    
Average Humidity 97    
Maximum Humidity 100    
Minimum Humidity 88    
Precipitation  
Precipitation 0.12 in 0.14 in - ()
Sea Level Pressure  
Sea Level Pressure 29.88 in    
Wind  
Wind Speed 2 mph ()    
Max Wind Speed 7 mph    
Max Gust Speed -    
Visibility 4.1 miles    
Events Fog , Rain    
Averages and records for this station are not official NWS values.
T = Trace of Precipitation, MM = Missing Value Source: Averaged Metar Reports

Daily Weather History Graph

Daily Weather History Graph

Search for Another Location

Airport:

Trip Planner

Search our weather history database for the weather conditions in past years. The results will help you decide how hot, cold, wet, or windy it might be!

Date:

Astronomy

Nov. 11, 2012 Rise Set
Actual Time 7:19 AM CET 4:56 PM CET
Civil Twilight 6:47 AM CET 5:28 PM CET
Nautical Twilight 6:11 AM CET 6:04 PM CET
Astronomical Twilight 5:36 AM CET 6:39 PM CET
Moon 4:06 AM CET (11/11) 3:16 PM CET (11/11)
Length of Visible Light 10h 41m
Length of Day
9h 37m
Waning Crescent, 9% of the Moon is Illuminated
Nov 11
Waning Crescent
Nov 13
New
Nov 20
First Quarter
Nov 28
Full
Dec 6
Last Quarter

Hourly Weather History & Observations

Time (CET) Temp. Windchill Dew Point Humidity Pressure Visibility Wind Dir Wind Speed Gust Speed Precip Events Conditions
12:00 AM 45 °F - 45 °F 100% 29.90 in - NE 2.3 mph - -  
12:20 AM 44.6 °F 42.2 °F 44.6 °F 100% 29.89 in 3.1 mi SSE 4.6 mph - N/A Rain Rain
12:50 AM 44.6 °F - 44.6 °F 100% 29.86 in - Variable 2.3 mph - N/A Rain Rain
1:20 AM 44.6 °F - 44.6 °F 100% 29.86 in 6.2 mi Variable 1.2 mph - N/A Rain Rain
1:50 AM 44.6 °F 42.2 °F 44.6 °F 100% 29.83 in 5.0 mi South 4.6 mph - N/A Rain Rain
2:00 AM 46 °F - 44 °F 89% 29.86 in - Calm Calm - -  
2:20 AM 44.6 °F 42.2 °F 44.6 °F 100% 29.83 in 4.3 mi SE 4.6 mph - N/A Rain Rain
2:50 AM 44.6 °F 43.1 °F 44.6 °F 100% 29.83 in 3.1 mi Variable 3.5 mph - N/A Rain Rain
3:00 AM 45 °F - 45 °F 100% 29.86 in - West 2.3 mph - -  
3:20 AM 44.6 °F - 44.6 °F 100% 29.83 in 4.3 mi Variable 2.3 mph - N/A Rain Rain
3:50 AM 44.6 °F - 44.6 °F 100% 29.80 in 6.2 mi Variable 2.3 mph - N/A Rain Rain
4:20 AM 44.6 °F 41.4 °F 44.6 °F 100% 29.80 in 3.1 mi SSE 5.8 mph - N/A Rain Rain
4:50 AM 44.6 °F - 44.6 °F 100% 29.80 in 3.7 mi Variable 2.3 mph - N/A Rain Rain
5:00 AM 45 °F - 44 °F 97% 29.83 in - West 3.5 mph - -  
5:20 AM 44.6 °F - 44.6 °F 100% 29.77 in 6.2 mi Variable 2.3 mph - N/A Rain Light Rain
5:50 AM 44.6 °F 41.4 °F 44.6 °F 100% 29.80 in - SSE 5.8 mph - N/A Rain Rain
6:00 AM 45 °F - 45 °F 99% 29.83 in - WNW 2.3 mph - -  
6:20 AM 44.6 °F - 42.8 °F 93% 29.80 in 3.1 mi Variable 2.3 mph - N/A Rain Rain
6:50 AM 44.6 °F - 44.6 °F 100% 29.80 in 3.1 mi Variable 2.3 mph - N/A Rain Rain
7:20 AM 44.6 °F 43.1 °F 44.6 °F 100% 29.80 in 3.1 mi Variable 3.5 mph - N/A Rain Rain
7:50 AM 44.6 °F - 44.6 °F 100% 29.77 in 3.7 mi Variable 2.3 mph - N/A Rain Rain
8:00 AM 46 °F - 45 °F 94% 29.81 in - South 1.2 mph - -  
8:20 AM 44.6 °F 43.1 °F 44.6 °F 100% 29.80 in 3.7 mi South 3.5 mph - N/A Rain Rain
8:50 AM 44.6 °F 43.1 °F 44.6 °F 100% 29.77 in 3.7 mi SSE 3.5 mph - N/A Rain Rain
9:00 AM 47 °F - 46 °F 93% 29.79 in - NW 1.2 mph - -  
9:20 AM 46.4 °F 43.5 °F 44.6 °F 93% 29.77 in 3.7 mi South 5.8 mph - N/A Rain Rain
9:50 AM 46.4 °F 43.5 °F 44.6 °F 93% 29.77 in 3.7 mi SSE 5.8 mph - N/A Rain Rain
10:20 AM 46.4 °F - 44.6 °F 93% 29.77 in 4.3 mi Calm Calm - N/A Rain Rain
10:50 AM 46.4 °F - 46.4 °F 100% 29.80 in 4.3 mi Variable 2.3 mph - N/A Rain Rain
11:00 AM 48 °F - 46 °F 88% 29.81 in - West 2.3 mph - -  
11:20 AM 46.4 °F 43.5 °F 46.4 °F 100% 29.80 in 3.1 mi SSE 5.8 mph - N/A Rain Rain
11:50 AM 46.4 °F 42.9 °F 46.4 °F 100% 29.80 in 3.1 mi SSE 6.9 mph - N/A Rain Rain
12:00 PM 47 °F - 47 °F 98% 29.84 in - NW 1.2 mph - -  
12:20 PM 46.4 °F - 46.4 °F 100% 29.83 in 3.1 mi Variable 2.3 mph - N/A Rain Rain
12:50 PM 48.2 °F - 46.4 °F 93% 29.83 in 2.5 mi Variable 1.2 mph - N/A Rain Rain
1:20 PM 48.2 °F - 46.4 °F 93% 29.83 in 2.5 mi Variable 3.5 mph - N/A Rain Rain
1:50 PM 48.2 °F - 46.4 °F 93% 29.83 in 2.5 mi Variable 1.2 mph - N/A Rain Rain
2:00 PM 49 °F - 47 °F 92% 29.87 in - West 1.2 mph - -  
2:20 PM 48.2 °F - 46.4 °F 93% 29.86 in 5.0 mi Variable 1.2 mph - N/A Rain Light Rain
2:50 PM 48.2 °F - 48.2 °F 100% 29.86 in 5.0 mi Variable 2.3 mph - N/A Rain Light Rain
3:00 PM 49 °F - 47 °F 92% 29.88 in - West 2.3 mph - -  
3:20 PM 48.2 °F - 48.2 °F 100% 29.86 in 5.0 mi Variable 2.3 mph - N/A Rain Light Rain
3:50 PM 48.2 °F - 48.2 °F 100% 29.89 in 5.0 mi Variable 2.3 mph - N/A   Mostly Cloudy
4:20 PM 48.2 °F - 48.2 °F 100% 29.89 in 5.6 mi Variable 2.3 mph - N/A   Overcast
4:50 PM 48.2 °F - 48.2 °F 100% 29.92 in 5.6 mi Variable 2.3 mph - N/A   Overcast
5:00 PM 49 °F - 48 °F 96% 29.94 in - WNW 2.3 mph - -  
5:20 PM 48.2 °F - 48.2 °F 100% 29.92 in 5.6 mi Variable 2.3 mph - N/A   Overcast
5:50 PM 48.2 °F - 48.2 °F 100% 29.95 in 5.6 mi Variable 2.3 mph - N/A   Overcast
6:00 PM 50 °F - 48 °F 89% 29.97 in - West 2.3 mph - -  
6:20 PM 48.2 °F - 48.2 °F 100% 29.95 in 6.2 mi Variable 1.2 mph - N/A   Mostly Cloudy
6:50 PM 48.2 °F - 48.2 °F 100% 29.98 in 6.2 mi Variable 1.2 mph - N/A   Mostly Cloudy
7:20 PM 48.2 °F - 46.4 °F 93% 29.98 in 6.2 mi Variable 1.2 mph - N/A   Mostly Cloudy
7:50 PM 48.2 °F - 46.4 °F 93% 30.01 in 6.2 mi Variable 1.2 mph - N/A   Mostly Cloudy
8:00 PM 49 °F - 48 °F 93% 30.03 in - NW 1.2 mph - -  
8:20 PM 46.4 °F - 46.4 °F 100% 30.01 in 5.0 mi Variable 2.3 mph - N/A   Mostly Cloudy
8:50 PM 46.4 °F - 46.4 °F 100% 30.01 in 5.0 mi Variable 2.3 mph - N/A   Mostly Cloudy
9:00 PM 48 °F - 47 °F 96% 30.05 in - NW 1.2 mph - -  
9:20 PM 46.4 °F - 44.6 °F 93% 30.04 in 4.3 mi Variable 2.3 mph - N/A   Mostly Cloudy
9:50 PM 46.4 °F - 46.4 °F 100% 30.04 in 4.3 mi Variable 2.3 mph - N/A   Mostly Cloudy
10:20 PM 46.4 °F - 46.4 °F 100% 30.04 in 1.3 mi Variable 2.3 mph - N/A   Overcast
10:50 PM 46.4 °F - 46.4 °F 100% 30.06 in 1.2 mi Variable 1.2 mph - N/A   Overcast
11:00 PM 48 °F - 47 °F 96% 30.08 in - NW 1.2 mph - -  
11:20 PM 46.4 °F - 46.4 °F 100% 30.06 in 0.1 mi Variable 1.2 mph - N/A Fog Fog
11:50 PM 46.4 °F - 46.4 °F 100% 30.06 in 0.8 mi Variable 1.2 mph - N/A Fog Fog